Location: Waco, TX
(31.5480°N, 97.1670°W)
Time: 15:47:53
(UTC-05:00)

ISS - Pass Details

Date: 19 September 2019
Orbit: 411 x 421 km, 51.6° (Epoch: 17 September)

Event Time Altitude Azimuth Distance (km) Brightness Sun altitude
Rises 19:40:42 0° 209° (SSW) 2,328 0.4 -3.2°
Reaches altitude 10° 19:42:51 10° 201° (SSW) 1,469 -0.7 -3.7°
Maximum altitude 19:45:57 39° 131° (SE) 628 -3.2 -4.3°
Drops below altitude 10° 19:49:04 10° 60° (ENE) 1,475 -1.5 -5.0°
Enters shadow 19:51:07 - 53° (NE) 2,292 -0.5 -5.4°
Sets 19:51:14 0° 53° (NE) 2,339 - -5.5°
